sat.trackr.live / text

‹ back to catalog

STARLINK-30801

NORAD 58184 · 2023-167K

PAYLOAD ACTIVE UNKNOWN

§ Identity

Operator
Country
US
Launch date
2023-10-30
Launch site
AFETR
Launch vehicle
Mass (kg)
RCS (m²)

Purposes: comms

External: N2YO · Heavens-Above · Gunter

§ Orbital elements

Epoch: 2026-05-25T03:32:46.273056Z

Period
94.27 min
Inclination
43.0040°
Eccentricity
0.0001383
Mean motion
15.27576026 rev/d
Perigee alt
482.1 km
Apogee alt
484.0 km
Semi-major
6,861.2 km
B*
-6.7467e-6
RAAN
72.0076°
Arg perigee
267.2754°
Mean anomaly
92.7939°
Rev number
14,267

§ Raw data

STARLINK-308011 58184U 23167K   26145.14775779 -.00000448  00000+0 -67467-5 0  99922 58184  43.0040  72.0076 0001383 267.2754  92.7939 15.27576026142679

JSON: /api/v1/satellites/58184 · /tle

For live sub-satellite position, see the globe view (requires WebGL).

§ Visibility from observer

Set your observer location to see the next 7 days of passes ≥ 10°. The values pass through the URL so the page stays shareable.

No JS? Fill the form by hand. The geolocation button needs JavaScript.